logo tempoitalia

Diretta Meteo Astrakhan, Russialunedì 31 agosto ore 08:00

Mappa
Sereno 20 °C Sereno 24 Ore: T.min 12 T.max 25
Ponente Est Km/h 18 Punto di rugiada: 2 °C Umidità: 30% Visibilità: 10 Km
Il sole sorge alle: 05:06 Il sole tramonta alle: 18:29
31 Agosto 2026 08:00 tempo osservato: Sereno Sereno 20 30 1023 vento: Nord E 18
31 Agosto 2026 07:30 tempo osservato: Sereno Sereno 18 34 1023 vento: Nord E 18
31 Agosto 2026 07:00 tempo osservato: Sereno Sereno 16 38 1023 vento: Nord E 14.4
31 Agosto 2026 06:30 tempo osservato: Sereno Sereno 15 41 1023 vento: Nord E/NE 14.4
31 Agosto 2026 06:00 tempo osservato: Sereno Sereno 14 44 1023 vento: Nord E/NE 14.4
31 Agosto 2026 05:30 tempo osservato: Sereno Sereno 13 50 1023 vento: Nord NE 14.4
31 Agosto 2026 05:00 tempo osservato: Sereno Sereno 12 57 1023 vento: Nord NE 14.4
31 Agosto 2026 04:30 tempo osservato: Sereno Sereno 13 62 1023 vento: Nord NE 14.4
31 Agosto 2026 04:00 tempo osservato: Sereno Sereno 13 66 1023 vento: Nord N/NE 10.8
31 Agosto 2026 03:30 tempo osservato: Sereno Sereno 14 67 1023 vento: Nord NE 14.4
31 Agosto 2026 03:00 tempo osservato: Sereno Sereno 13 66 1022 vento: Nord NE 10.8
31 Agosto 2026 02:30 tempo osservato: Sereno Sereno 14 62 1022 vento: Nord N 7.2
31 Agosto 2026 02:00 tempo osservato: Sereno Sereno 13 62 1022 vento: Nord N 0
31 Agosto 2026 01:30 tempo osservato: Sereno Sereno 14 62 1022 vento: Nord N 7.2
31 Agosto 2026 01:00 tempo osservato: Sereno Sereno 14 62 1022 vento: Nord N 3.6
31 Agosto 2026 00:30 tempo osservato: Sereno Sereno 14 62 1022 vento: Nord N 7.2
31 Agosto 2026 00:00 tempo osservato: Sereno Sereno 14 62 1022 vento: Nord N 7.2
30 Agosto 2026 23:30 tempo osservato: Sereno Sereno 14 67 1022 vento: Nord N 7.2
30 Agosto 2026 23:00 tempo osservato: Sereno Sereno 14 67 1022 vento: Nord N 3.6
30 Agosto 2026 22:30 tempo osservato: Sereno Sereno 14 67 1022 vento: Nord N 3.6
30 Agosto 2026 22:00 tempo osservato: Sereno Sereno 14 67 1022 vento: Nord N 0
30 Agosto 2026 21:30 tempo osservato: Sereno Sereno 15 62 1022 vento: Nord N 3.6
30 Agosto 2026 21:00 tempo osservato: Sereno Sereno 16 58 1022 vento: Nord N 3.6
30 Agosto 2026 20:30 tempo osservato: Sereno Sereno 16 58 1022 vento: Nord N 3.6
30 Agosto 2026 20:00 tempo osservato: Sereno Sereno 17 51 1022 vento: Nord N 7.2
30 Agosto 2026 19:30 tempo osservato: Sereno Sereno 18 45 1022 vento: Nord N 7.2
30 Agosto 2026 19:00 tempo osservato: Sereno Sereno 19 39 1021 vento: Nord N 7.2
30 Agosto 2026 18:30 tempo osservato: Sereno Sereno 20 37 1021 vento: Nord S/SE 10.8
30 Agosto 2026 18:00 tempo osservato: Sereno Sereno 23 28 1021 vento: Nord SE 14.4
30 Agosto 2026 17:30 tempo osservato: Sereno Sereno 24 25 1020 vento: Nord E/SE 18
30 Agosto 2026 17:00 tempo osservato: Sereno Sereno 24 23 1020 vento: Nord E/SE 18
30 Agosto 2026 16:30 tempo osservato: Sereno Sereno 24 23 1020 vento: Nord E 18
30 Agosto 2026 16:00 tempo osservato: Sereno Sereno 25 22 1020 vento: Nord E/SE 21.6
30 Agosto 2026 15:30 tempo osservato: Sereno Sereno 25 22 1020 vento: Nord E 21.6
30 Agosto 2026 15:00 tempo osservato: Sereno Sereno 25 23 1021 vento: Nord E 21.6
30 Agosto 2026 14:30 tempo osservato: Sereno Sereno 25 23 1021 vento: Nord E/SE 25.2
30 Agosto 2026 14:00 tempo osservato: Sereno Sereno 25 22 1021 vento: Nord E 21.6
30 Agosto 2026 13:30 tempo osservato: Sereno Sereno 25 22 1021 vento: Nord E 25.2
30 Agosto 2026 13:00 tempo osservato: Sereno Sereno 25 23 1021 vento: Nord E/NE 21.6
30 Agosto 2026 12:30 tempo osservato: Sereno Sereno 25 22 1021 vento: Nord E 25.2
30 Agosto 2026 12:00 tempo osservato: Sereno Sereno 24 22 1021 vento: Nord E 28.8
30 Agosto 2026 11:30 tempo osservato: Sereno Sereno 24 22 1021 vento: Nord E 28.8
30 Agosto 2026 11:00 tempo osservato: Sereno Sereno 24 22 1021 vento: Nord E/NE 25.2
30 Agosto 2026 10:30 tempo osservato: Sereno Sereno 24 22 1021 vento: Nord E/NE 25.2
30 Agosto 2026 10:00 tempo osservato: Sereno Sereno 23 23 1022 vento: Nord E 28.8
30 Agosto 2026 09:30 tempo osservato: Sereno Sereno 22 24 1022 vento: Nord E 28.8
30 Agosto 2026 09:00 tempo osservato: Sereno Sereno 21 26 1022 vento: Nord E/NE 28.8